Theta_e
316 318 320 319 318 317 318 316 314 318 317 316 315 316 315 315 314 312 312 310 311 313 311 313 314 313 315 316 317 315 315 315 318 323 323 322 321 320 319 320 321 322 325 326 327 328 327
313 315 317 318 319 317 317 318 315 315 317 316 315 315 315 314 314 312 311 311 310 310 311 310 313 314 314 314 312 314 316 315 317 320 322 321 321 318 319 318 318 319 321 323 324 325 326
308 309 311 315 317 319 316 315 316 314 317 317 315 315 315 312 313 311 312 312 312 311 311 311 312 312 313 311 310 312 312 313 315 316 316 320 321 320 320 320 318 320 322 322 321 322 325
307 308 309 310 313 315 319 316 314 315 314 316 316 316 315 312 311 312 313 312 312 312 311 311 311 312 311 310 310 309 311 311 312 314 313 312 312 313 317 318 318 321 320 324 321 322 323
306 306 307 307 308 311 315 317 315 314 314 316 316 316 314 313 310 313 312 312 308 308 310 311 310 312 309 309 312 310 311 311 311 311 311 312 311 314 317 321 321 320 321 321 324 321 324
304 304 305 305 306 308 313 314 317 314 314 316 315 316 314 313 310 311 312 311 308 308 310 314 312 312 311 311 311 311 310 312 311 311 311 311 311 314 315 319 322 321 318 319 321 322 322
303 303 303 305 306 306 308 312 312 316 313 315 315 315 315 314 313 310 313 310 308 310 312 315 313 310 310 311 310 311 311 311 311 311 313 312 313 315 314 315 316 316 317 318 318 319 321
302 303 303 303 305 305 306 309 310 313 314 314 313 315 316 313 314 311 312 307 309 310 312 311 312 311 310 311 312 312 311 311 312 314 312 314 316 312 311 313 317 318 318 318 317 316 319
299 301 302 302 304 304 306 307 309 310 314 314 313 314 315 312 314 312 311 310 310 310 313 312 311 312 312 312 313 313 311 311 312 313 313 313 312 311 313 314 316 318 319 317 318 317 316
300 298 301 302 303 304 305 306 307 309 314 314 313 314 315 313 311 311 310 310 310 310 311 312 311 312 312 313 314 312 311 312 313 313 312 313 312 312 313 314 315 317 316 318 318 318 319
300 298 300 301 302 303 305 306 306 308 311 313 313 314 314 313 308 310 309 310 310 310 306 308 312 310 311 313 313 312 312 312 315 313 313 313 312 313 313 313 313 315 313 314 316 318 319
299 298 300 300 303 303 304 305 306 307 308 312 313 314 313 310 309 310 310 310 310 304 306 314 311 311 312 313 313 313 312 312 313 315 313 311 310 312 312 311 312 313 314 314 314 316 320
299 298 300 300 302 303 303 304 304 307 308 309 312 314 313 310 312 310 311 308 308 304 310 315 313 312 311 314 313 313 314 315 316 317 313 314 314 312 313 313 312 312 314 315 318 316 315
299 298 299 299 301 302 302 303 306 307 306 309 308 315 314 309 311 311 308 309 306 308 313 313 312 312 312 311 313 313 315 315 313 313 315 316 314 313 312 313 314 314 314 314 313 315 312
299 298 299 299 301 302 301 303 305 305 306 307 307 315 313 310 311 309 309 313 306 310 313 313 312 313 314 314 313 313 314 313 311 313 314 314 313 311 311 312 312 314 316 311 312 316 322
299 298 298 299 300 302 300 304 305 305 305 308 312 315 313 309 310 308 310 314 310 314 313 313 315 315 315 314 315 313 311 309 311 310 310 309 309 310 311 312 312 313 312 315 315 315 318
298 298 298 298 299 300 301 303 305 305 306 309 311 314 312 310 309 309 311 313 312 313 312 313 315 317 316 313 312 311 311 310 310 311 309 310 309 313 312 313 313 315 315 315 313 315 320
298 298 298 297 299 300 301 301 303 305 307 311 314 311 310 309 312 309 312 312 312 313 313 314 313 315 316 315 312 311 311 309 309 310 311 311 313 313 312 312 312 314 314 315 316 315 323
298 298 298 297 298 300 301 303 303 304 306 312 315 315 310 310 311 311 313 312 312 314 314 313 314 313 314 316 317 311 312 311 312 311 313 313 315 316 316 316 314 316 316 316 318 319 317
298 297 297 297 298 300 301 303 302 304 307 311 313 312 313 312 313 312 313 314 314 311 313 312 313 314 315 314 314 314 313 313 313 312 314 313 316 316 320 324 322 320 319 318 320 322 317
298 297 297 297 298 300 301 302 302 303 306 311 313 314 313 314 314 314 313 315 314 315 311 312 313 314 315 315 314 315 313 313 315 315 314 313 319 318 317 316 317 323 321 321 316 320 321
298 297 297 296 298 299 301 302 302 302 306 311 313 314 313 313 314 315 315 316 315 313 313 314 314 315 316 315 313 314 314 314 316 315 314 314 316 313 317 318 320 323 324 322 319 317 317
297 297 297 296 297 299 300 301 301 303 306 312 311 310 313 314 314 316 316 315 315 314 313 314 314 315 315 314 312 312 313 314 316 316 316 316 316 319 327 325 325 330 327 316 316 320 319
297 297 297 297 296 298 300 301 301 303 304 307 311 310 314 318 316 316 315 314 315 314 315 315 314 315 314 314 314 316 319 318 317 316 316 315 316 322 326 326 324 318 317 325 325 324 321
297 297 297 297 296 298 300 301 302 302 304 306 309 312 314 317 316 316 316 315 314 314 315 315 315 312 313 317 320 321 321 321 320 319 321 315 318 323 327 323 319 317 315 319 324 324 316
297 297 296 297 295 297 299 301 301 302 304 306 309 312 311 316 316 314 313 315 315 315 314 315 312 309 314 321 322 324 322 319 322 322 316 317 318 322 317 321 324 318 314 312 314 319 314
297 297 297 296 295 297 299 300 301 302 303 306 310 312 312 313 313 313 314 314 313 315 314 312 314 312 316 320 323 322 320 319 323 325 323 323 321 322 320 325 319 316 313 312 320 316 313
297 297 297 295 295 297 298 300 301 302 303 305 311 312 312 313 313 311 309 312 313 313 315 313 316 315 319 322 321 324 323 320 320 320 319 323 324 324 321 322 318 314 313 316 312 311 310
297 297 297 295 295 296 298 300 301 302 303 305 310 312 312 312 313 312 311 310 310 312 313 312 315 316 319 320 319 318 322 315 316 321 316 321 320 321 319 318 314 312 313 313 310 310 309
Wind_Speed
30 30 21 22 20 21 20 20 18 16 15 16 14 13 12 11 9 7 5 3 2 1 1 1 1 2 5 3 6 5 6 5 4 15 17 6 4 4 5 4 4 5 7 9 9 10 14
28 28 28 27 23 21 21 19 20 19 17 16 16 15 14 13 11 9 6 4 3 2 2 2 3 4 3 5 8 15 7 2 2 10 11 11 6 6 4 6 6 5 6 8 9 11 8
26 28 29 29 27 22 22 22 21 21 19 19 17 16 16 15 13 10 7 4 3 3 3 2 2 5 3 11 6 6 4 12 11 7 4 17 17 1 1 4 2 4 7 7 6 4 5
26 26 28 28 30 30 23 23 24 22 22 20 20 18 17 15 15 12 9 7 6 5 5 3 3 3 6 7 9 22 12 9 7 12 11 9 7 4 4 4 6 4 4 4 3 6 5
28 28 28 28 29 32 30 26 26 26 23 23 20 20 17 16 16 15 11 9 6 5 6 5 4 3 7 6 6 16 12 7 4 7 11 14 3 3 3 3 4 3 4 6 4 9 5
30 30 31 30 30 29 28 27 27 28 26 24 23 22 19 18 16 15 12 9 4 4 5 6 3 1 5 4 6 4 14 11 4 2 2 3 2 2 1 5 13 12 6 6 5 4 8
29 31 31 31 31 31 31 30 30 29 27 25 23 21 20 19 17 16 16 5 2 1 6 6 6 4 2 2 7 4 14 5 2 1 4 2 4 10 15 9 6 7 5 7 3 8 7
31 31 31 31 31 31 30 31 31 27 28 27 24 22 22 21 19 18 17 4 4 3 3 13 13 13 12 6 3 3 14 6 6 9 4 4 11 10 7 8 9 11 13 15 8 9 9
31 31 31 32 32 31 29 29 30 29 28 28 25 22 23 21 19 19 19 12 7 1 2 4 5 6 7 9 9 6 13 6 6 12 12 12 6 14 12 12 11 14 17 11 12 11 15
34 31 33 34 33 30 30 27 28 30 20 24 24 23 24 22 16 15 12 18 9 2 2 4 2 2 4 6 5 18 19 8 7 15 13 12 15 9 16 14 11 15 11 11 9 7 5
34 34 33 35 34 33 28 30 28 25 24 23 22 23 28 33 15 14 9 19 16 2 3 4 4 1 3 6 2 2 17 12 12 10 7 8 8 19 20 15 13 9 5 5 3 8 8
34 33 33 35 34 33 28 31 29 26 24 19 21 25 34 25 13 13 15 22 12 4 6 6 4 5 5 4 2 2 4 8 1 14 15 8 1 7 12 14 13 3 4 3 2 1 9
36 34 34 35 35 32 34 32 39 25 22 23 20 25 38 31 10 26 30 9 3 4 3 6 4 5 3 6 7 7 6 8 5 7 8 6 15 4 3 6 8 11 6 3 4 6 12
36 36 36 37 36 38 35 47 34 18 19 24 25 28 41 29 27 38 16 2 4 4 4 3 4 8 7 7 6 9 6 8 13 6 1 6 4 16 9 15 5 13 15 4 7 4 6
35 37 35 36 37 38 41 49 18 14 15 16 32 30 27 26 39 34 8 4 7 5 6 10 5 5 6 8 6 10 9 9 9 16 8 5 5 3 6 7 12 6 10 22 5 4 4
35 35 35 35 37 39 44 36 13 15 18 20 17 17 17 40 43 17 5 5 5 4 8 5 6 9 6 6 9 8 8 5 9 16 12 5 2 6 5 4 9 14 7 5 5 6 10
33 34 35 35 38 39 46 31 17 15 21 19 22 5 25 42 33 7 4 6 4 6 6 6 6 6 7 6 8 7 6 4 13 12 20 5 4 2 5 10 14 9 11 10 6 6 5
33 33 34 35 37 38 42 34 28 25 26 13 2 4 33 42 5 3 3 6 5 6 3 3 3 8 7 10 6 5 8 7 10 9 12 10 4 8 20 11 11 15 17 19 7 13 4
31 33 33 34 37 37 39 28 26 27 26 5 3 3 29 31 5 5 4 5 5 7 8 7 10 11 12 6 5 10 8 8 8 13 9 8 5 4 7 7 11 10 17 12 12 2 18
29 31 31 32 34 37 37 34 32 30 29 6 3 4 3 3 3 7 6 4 6 5 6 8 6 11 7 7 10 4 6 4 12 8 17 13 4 7 6 4 5 10 21 20 12 7 14
28 29 30 31 32 35 37 35 33 29 32 6 2 3 3 8 6 9 13 9 6 7 8 8 4 17 9 7 9 9 12 5 4 13 12 9 5 9 17 23 17 15 19 22 15 12 9
27 27 28 30 30 32 36 33 32 34 33 3 2 3 2 4 9 8 11 9 9 5 7 5 9 13 14 7 7 2 7 6 4 12 11 6 4 3 13 21 18 14 17 21 18 15 16
27 26 27 28 29 31 36 37 35 27 25 0 3 2 4 8 8 7 5 8 10 8 9 12 14 12 11 20 15 15 8 5 8 11 12 5 3 3 6 9 11 8 14 21 15 16 21
29 25 26 26 26 28 32 30 31 30 24 12 6 4 2 4 7 8 8 11 13 14 9 5 11 10 4 0 4 5 4 4 8 12 9 5 9 5 2 1 2 3 3 16 20 10 6
28 25 26 26 26 28 32 32 30 28 24 22 6 2 2 2 5 5 5 5 8 11 11 12 14 8 2 3 3 0 1 3 2 3 9 8 1 3 2 3 5 4 5 1 4 3 1
27 25 23 25 25 27 30 30 28 28 23 22 8 2 3 3 6 6 3 3 2 2 3 3 1 2 3 1 2 4 4 4 3 3 6 7 4 1 4 2 2 3 4 2 1 2 2
26 24 22 24 24 25 28 29 27 27 23 21 6 8 3 2 2 4 3 3 3 2 2 2 2 3 4 5 3 3 2 2 4 4 4 3 2 5 2 2 7 5 3 1 2 4 2
26 23 20 22 23 25 27 29 27 26 22 17 5 10 4 1 1 3 4 4 2 3 3 2 2 2 3 3 3 3 3 4 2 3 4 5 4 3 2 1 5 2 4 1 3 3 3
24 22 20 22 22 23 26 28 27 25 21 17 2 13 10 1 1 2 4 7 4 5 3 3 2 3 4 3 3 2 2 2 4 3 2 4 6 4 6 5 2 2 2 1 2 3 3
Wind_Direction
344 347 295 286 289 281 284 281 275 269 260 263 255 241 241 238 239 238 241 239 232 289 283 220 193 166 173 212 245 153 96 77 168 200 196 185 196 176 201 220 280 247 259 251 262 257 266
341 338 340 336 278 285 276 275 279 269 257 256 258 241 239 236 238 237 230 233 218 233 257 251 216 196 226 239 240 226 219 233 177 172 198 191 214 205 249 222 227 301 306 279 260 268 264
330 331 336 330 321 287 281 272 271 270 260 253 253 247 240 235 230 230 221 224 230 217 234 232 228 206 254 237 234 135 244 249 228 213 185 218 234 339 299 304 313 277 305 294 237 243 259
342 331 329 322 327 328 296 279 268 267 258 250 249 240 236 234 224 222 217 212 215 226 230 212 199 194 248 262 259 259 253 289 238 236 241 238 254 247 211 279 344 351 284 255 190 204 226
342 335 331 328 318 326 323 298 269 263 255 249 242 235 232 228 226 218 209 209 217 241 230 201 181 184 265 309 233 248 239 228 247 234 252 266 226 222 325 206 291 236 261 268 295 232 229
338 333 328 329 323 313 324 327 272 262 253 244 238 234 225 217 217 215 206 202 211 247 207 192 216 263 251 236 211 233 206 220 252 330 282 206 89 157 73 184 225 234 252 256 214 322 227
335 333 328 326 322 316 315 316 313 266 251 240 238 234 225 216 211 202 181 156 70 233 230 209 186 222 255 212 181 182 190 149 175 172 203 199 185 212 221 221 242 271 259 255 357 313 325
335 332 329 326 323 321 314 311 305 308 251 240 234 230 222 211 205 198 192 186 209 122 237 233 245 238 272 299 325 207 159 164 176 221 154 263 236 219 242 226 238 248 261 265 291 259 282
333 331 328 325 324 319 315 306 310 311 248 240 236 224 217 202 193 186 196 208 169 134 261 241 208 223 232 223 235 212 164 181 197 221 212 221 212 227 220 225 223 240 242 254 263 293 284
335 326 329 329 323 316 315 307 307 293 263 239 233 219 202 181 162 189 205 201 171 187 280 205 201 247 190 200 262 215 195 180 214 219 225 243 230 259 211 224 214 243 207 238 259 276 259
334 330 327 327 326 327 314 316 305 292 294 244 228 217 185 179 157 173 197 188 197 171 339 187 145 154 137 182 119 228 207 201 216 196 176 211 207 216 240 230 218 236 267 235 259 289 300
336 333 330 330 328 328 321 315 308 285 284 248 239 215 187 171 155 175 167 160 150 52 251 170 136 177 175 201 201 86 177 226 293 229 222 220 58 210 219 232 216 112 217 279 260 286 247
337 333 331 332 331 329 330 319 310 273 278 254 252 214 184 175 173 156 149 134 103 171 188 163 175 179 208 188 200 187 187 200 203 199 210 191 227 261 179 184 211 209 167 242 211 200 239
336 336 332 333 335 335 331 320 301 258 278 258 262 212 185 172 165 152 147 109 189 198 162 124 152 167 190 190 235 204 225 218 230 214 224 213 232 199 186 207 179 200 199 197 201 217 254
333 334 334 334 336 334 328 321 291 262 283 238 264 211 171 174 163 156 141 200 208 197 141 163 148 194 205 218 216 207 226 228 218 198 200 199 244 211 195 184 180 182 205 216 319 274 275
333 334 335 335 334 337 331 331 292 283 294 271 251 199 158 163 166 158 177 217 209 129 123 157 174 186 205 197 193 199 193 219 226 198 194 207 260 212 159 110 237 222 139 169 196 231 239
334 335 334 335 335 337 335 336 320 311 294 253 235 138 152 162 157 157 189 215 184 159 149 170 203 189 223 196 199 197 228 253 201 195 186 157 164 230 142 202 212 204 229 225 177 221 231
332 334 336 334 337 338 336 344 335 333 332 197 191 176 153 153 146 191 185 174 167 159 176 163 197 212 222 203 200 213 228 221 181 147 181 201 193 236 240 207 195 222 208 207 206 202 256
331 334 335 335 336 337 340 352 338 335 332 264 172 73 162 161 160 185 154 180 181 169 186 191 209 215 207 211 227 198 226 220 179 172 174 168 216 269 281 197 198 210 198 221 239 130 238
331 332 336 335 336 338 342 349 346 341 335 243 130 127 134 186 146 143 173 190 193 214 220 208 233 214 203 227 225 266 241 241 189 186 149 175 208 225 274 346 120 181 196 198 204 218 227
331 332 336 335 337 339 345 351 345 333 347 175 139 169 132 183 170 169 172 177 186 201 206 205 241 223 205 230 231 220 239 265 164 171 172 182 243 227 243 251 245 238 192 186 196 203 195
332 331 335 336 337 339 345 349 346 344 356 135 148 149 131 157 144 162 175 190 186 184 195 197 229 220 208 221 209 211 202 214 178 168 171 215 256 250 281 245 223 243 196 197 205 204 222
332 333 334 338 337 341 345 350 351 341 354 225 242 20 127 156 165 181 190 182 214 192 211 231 222 229 228 229 237 258 271 219 169 176 200 196 238 267 333 140 170 223 215 186 193 200 198
334 333 333 337 334 340 344 344 344 348 337 340 233 124 117 157 165 188 184 200 226 205 216 204 218 243 242 57 278 224 144 9 173 169 181 225 238 256 318 279 50 316 200 176 183 196 193
332 333 334 335 335 339 343 345 345 338 340 340 283 115 131 149 173 187 218 239 239 219 234 253 232 221 287 269 210 188 261 303 260 221 225 214 208 298 357 300 291 2 20 116 157 279 146
329 332 333 333 336 334 339 339 346 340 339 341 284 83 97 113 200 113 150 214 146 185 250 261 51 156 155 231 181 210 212 194 200 256 217 206 234 295 358 19 4 268 346 11 44 303 284
330 333 331 334 333 332 335 340 340 337 334 340 244 152 124 141 207 138 171 182 147 144 255 282 239 172 179 171 217 184 244 182 185 179 159 155 183 190 283 302 289 255 271 223 134 234 299
327 332 329 332 329 330 333 337 339 339 334 336 271 197 141 151 268 172 156 160 164 159 207 184 184 206 172 183 194 187 194 215 145 194 186 161 161 180 122 324 288 317 343 82 202 18 17
329 332 329 330 330 328 329 334 340 338 328 342 232 186 185 149 302 269 226 234 204 185 170 200 298 198 183 147 189 182 212 142 167 225 210 210 177 186 180 211 279 326 24 52 126 126 78